FW6809 Weather Reports


time (UTC)temp
F
wind
direction
speed
knots
gust
knots
rain 1hr
in
rain 24hr
in
rain mn
in
humidity
%
barometer
mb
20210723154605 82 0 0.0 2.6 0.00 0.00 0.00 41 1021.8
20210723154042 81 0 0.0 2.6 0.00 0.00 0.00 41 1021.8
20210723153542 81 126 0.9 2.6 0.00 0.00 0.00 41 1021.8
20210723153113 81 0 0.9 2.6 0.00 0.00 0.00 42 1021.8
20210723152632 81 0 0.0 1.7 0.00 0.00 0.00 42 1021.8
20210723152041 80 120 0.0 1.7 0.00 0.00 0.00 43 1021.7
20210723151605 80 0 0.0 0.9 0.00 0.00 0.00 44 1021.7
20210723151044 79 122 0.0 2.6 0.00 0.00 0.00 44 1021.7
20210723150557 78 0 0.9 2.6 0.00 0.00 0.00 44 1021.8
20210723150046 78 122 0.0 2.6 0.00 0.00 0.00 45 1021.8
20210723145543 78 0 0.0 2.6 0.00 0.00 0.00 45 1021.6
20210723145043 77 123 0.0 1.7 0.00 0.00 0.00 45 1021.8
20210723144617 77 0 0.0 0.0 0.00 0.00 0.00 46 1021.8
20210723144104 77 0 0.0 0.0 0.00 0.00 0.00 46 1021.9
20210723143542 77 0 0.0 0.0 0.00 0.00 0.00 46 1021.9
20210723143109 76 0 0.0 0.0 0.00 0.00 0.00 46 1021.9
20210723142542 76 0 0.0 0.9 0.00 0.00 0.00 47 1021.9
20210723142048 76 0 0.0 0.9 0.00 0.00 0.00 47 1022.0
20210723141615 76 0 0.0 0.0 0.00 0.00 0.00 48 1022.0
20210723141042 75 0 0.0 0.0 0.00 0.00 0.00 48 1021.9
20210723140544 75 0 0.0 0.0 0.00 0.00 0.00 48 1021.9
20210723140152 75 0 0.0 0.0 0.00 0.00 0.00 49 1021.9
20210723135542 74 0 0.0 0.0 0.00 0.00 0.00 49 1021.9
20210723135043 74 0 0.0 0.0 0.00 0.00 0.00 49 1022.0
20210723134746 73 0 0.0 0.0 0.00 0.00 0.00 49 1022.0
20210723134044 73 0 0.0 0.0 0.00 0.00 0.00 49 1022.0
20210723133544 73 0 0.0 0.0 0.00 0.00 0.00 49 1022.0
20210723133147 72 0 0.0 0.0 0.00 0.00 0.00 50 1022.0
20210723132546 72 0 0.0 0.0 0.00 0.00 0.00 50 1021.9
20210723132043 71 0 0.0 0.0 0.00 0.00 0.00 50 1021.9
20210723131639 71 0 0.0 0.0 0.00 0.00 0.00 50 1021.9
20210723131043 71 0 0.0 0.0 0.00 0.00 0.00 50 1021.9
20210723130541 70 0 0.0 0.0 0.00 0.00 0.00 50 1021.9
20210723130114 70 0 0.0 0.0 0.00 0.00 0.00 50 1021.9
20210723125550 69 0 0.0 0.0 0.00 0.00 0.00 50 1022.0
20210723125056 69 0 0.0 0.0 0.00 0.00 0.00 51 1021.9
20210723124620 68 0 0.0 0.0 0.00 0.00 0.00 51 1021.9
20210723124045 68 0 0.0 0.0 0.00 0.00 0.00 51 1021.8
20210723123543 67 0 0.0 0.0 0.00 0.00 0.00 51 1021.8
20210723123108 67 0 0.0 0.0 0.00 0.00 0.00 51 1021.8
20210723122559 67 0 0.0 0.0 0.00 0.00 0.00 51 1021.7
20210723122040 66 0 0.0 0.0 0.00 0.00 0.00 51 1021.7
20210723121717 66 0 0.0 0.0 0.00 0.00 0.00 51 1021.6
20210723121043 66 0 0.0 0.0 0.00 0.00 0.00 51 1021.6
20210723120552 65 0 0.0 0.0 0.00 0.00 0.00 51 1021.4
20210723120243 65 0 0.0 0.0 0.00 0.00 0.00 51 1021.5
20210723115551 65 0 0.0 0.0 0.00 0.00 0.00 51 1021.5
20210723115047 65 0 0.0 0.0 0.00 0.00 0.00 51 1021.6
20210723114743 64 0 0.0 0.0 0.00 0.00 0.00 51 1021.5
20210723114044 64 0 0.0 0.0 0.00 0.00 0.00 51 1021.5
20210723113546 64 0 0.0 0.0 0.00 0.00 0.00 51 1021.5
20210723113205 64 0 0.0 0.0 0.00 0.00 0.00 51 1021.4
20210723112548 64 0 0.0 0.0 0.00 0.00 0.00 51 1021.5
20210723112043 64 0 0.0 0.0 0.00 0.00 0.00 51 1021.6
20210723111555 64 0 0.0 0.0 0.00 0.00 0.00 51 1021.4
20210723111042 64 0 0.0 0.0 0.00 0.00 0.00 51 1021.4
20210723110543 64 0 0.0 0.0 0.00 0.00 0.00 51 1021.4
20210723110128 64 0 0.0 0.0 0.00 0.00 0.00 51 1021.2
20210723105626 64 0 0.0 0.0 0.00 0.00 0.00 51 1021.2
20210723105047 64 0 0.0 0.0 0.00 0.00 0.00 51 1021.2
20210723104632 64 0 0.0 0.0 0.00 0.00 0.00 51 1021.1
20210723104044 64 0 0.0 0.0 0.00 0.00 0.00 51 1021.0
20210723103549 64 0 0.0 0.0 0.00 0.00 0.00 51 1020.9
20210723103142 64 0 0.0 0.0 0.00 0.00 0.00 51 1020.9
20210723102546 64 0 0.0 0.0 0.00 0.00 0.00 51 1020.8
20210723102044 64 0 0.0 0.0 0.00 0.00 0.00 51 1020.7
20210723101618 64 0 0.0 0.0 0.00 0.00 0.00 51 1020.7
20210723101049 64 0 0.0 0.0 0.00 0.00 0.00 51 1020.7
20210723100539 64 0 0.0 0.0 0.00 0.00 0.00 51 1020.7
20210723100201 64 0 0.0 0.0 0.00 0.00 0.00 51 1020.7
20210723095546 64 0 0.0 0.0 0.00 0.00 0.00 51 1020.7
20210723095041 64 0 0.0 0.0 0.00 0.00 0.00 51 1020.6
20210723094612 64 0 0.0 0.0 0.00 0.00 0.00 51 1020.5
20210723094049 64 0 0.0 0.0 0.00 0.00 0.00 51 1020.6
20210723093542 64 0 0.0 0.0 0.00 0.00 0.00 51 1020.6
20210723093222 64 0 0.0 0.0 0.00 0.00 0.00 51 1020.5
20210723092541 64 0 0.0 0.0 0.00 0.00 0.00 51 1020.5
20210723092050 64 0 0.0 0.0 0.00 0.00 0.00 51 1020.5
20210723091726 64 0 0.0 0.0 0.00 0.00 0.00 51 1020.4
20210723091043 64 0 0.0 0.0 0.00 0.00 0.00 51 1020.3
20210723090604 64 0 0.0 0.0 0.00 0.00 0.00 51 1020.4
20210723090127 64 0 0.0 0.0 0.00 0.00 0.00 51 1020.4
20210723085546 64 0 0.0 0.0 0.00 0.00 0.00 51 1020.3
20210723085044 64 0 0.0 0.0 0.00 0.00 0.00 51 1020.3
20210723084641 64 0 0.0 0.0 0.00 0.00 0.00 51 1020.3
20210723084043 64 0 0.0 0.0 0.00 0.00 0.00 51 1020.4
20210723083557 64 0 0.0 0.0 0.00 0.00 0.00 51 1020.3
20210723083208 64 0 0.0 0.0 0.00 0.00 0.00 51 1020.4
20210723082541 65 0 0.0 0.0 0.00 0.00 0.00 51 1020.4
20210723082058 65 0 0.0 0.0 0.00 0.00 0.00 51 1020.5
20210723081622 65 0 0.0 0.0 0.00 0.00 0.00 51 1020.4
20210723081041 64 0 0.0 0.0 0.00 0.00 0.00 51 1020.3
20210723080551 65 0 0.0 0.0 0.00 0.00 0.00 51 1020.3
20210723080122 65 0 0.0 0.0 0.00 0.00 0.00 51 1020.5
20210723075543 65 0 0.0 0.0 0.00 0.00 0.00 51 1020.4
20210723075046 65 0 0.0 0.0 0.00 0.00 0.00 51 1020.4
20210723074746 65 0 0.0 0.0 0.00 0.00 0.00 51 1020.4
20210723074049 65 0 0.0 0.0 0.00 0.00 0.00 51 1020.4
20210723073559 65 0 0.0 0.0 0.00 0.00 0.00 51 1020.6
20210723073121 65 0 0.0 0.0 0.00 0.00 0.00 51 1020.6
20210723072550 65 0 0.0 0.0 0.00 0.00 0.00 51 1020.6
20210723072045 65 0 0.0 0.0 0.00 0.00 0.00 51 1020.7
20210723071641 65 0 0.0 0.0 0.00 0.00 0.00 51 1020.6
20210723071043 65 0 0.0 0.0 0.00 0.00 0.00 51 1020.7
20210723070551 65 0 0.0 0.0 0.00 0.00 0.00 51 1020.7
20210723070110 65 0 0.0 0.0 0.00 0.00 0.00 51 1020.7
20210723065542 65 0 0.0 0.0 0.00 0.00 0.00 51 1020.6
20210723065058 65 0 0.0 0.0 0.00 0.00 0.00 51 1020.7
20210723064623 65 0 0.0 0.0 0.00 0.00 0.00 51 1020.7
20210723064118 65 0 0.0 0.0 0.00 0.00 0.00 51 1020.8
20210723063542 65 0 0.0 0.0 0.00 0.00 0.00 51 1020.7
20210723063111 65 0 0.0 0.0 0.00 0.00 0.00 51 1020.8
20210723062545 65 0 0.0 0.0 0.00 0.00 0.00 51 1020.7
20210723062045 65 0 0.0 0.0 0.00 0.00 0.00 51 1020.8
20210723061628 66 0 0.0 0.0 0.00 0.00 0.00 50 1020.7
20210723061045 66 0 0.0 0.0 0.00 0.00 0.00 51 1020.6
20210723060640 66 0 0.0 0.0 0.00 0.00 0.00 51 1020.6
20210723060236 66 0 0.0 0.0 0.00 0.00 0.00 51 1020.6
20210723055550 66 0 0.0 0.0 0.00 0.00 0.00 50 1020.5
20210723055047 66 0 0.0 0.0 0.00 0.00 0.00 50 1020.5
20210723054636 66 0 0.0 0.0 0.00 0.00 0.00 51 1020.6
20210723054042 66 0 0.0 0.0 0.00 0.00 0.00 51 1020.6
20210723053547 66 0 0.0 0.0 0.00 0.00 0.00 50 1020.6
20210723053258 66 0 0.0 0.0 0.00 0.00 0.00 50 1020.5
20210723052545 67 0 0.0 0.0 0.00 0.00 0.00 50 1020.6
20210723052044 67 0 0.0 0.0 0.00 0.00 0.00 50 1020.7
20210723051715 67 0 0.0 0.0 0.00 0.00 0.00 50 1020.8
20210723051047 67 0 0.0 0.0 0.00 0.00 0.00 50 1020.8
20210723050545 67 0 0.0 0.0 0.00 0.00 0.00 50 1020.9
20210723050200 67 0 0.0 0.0 0.00 0.00 0.00 50 1020.9
20210723045543 67 0 0.0 0.0 0.00 0.00 0.00 51 1020.9
20210723045040 67 0 0.0 0.0 0.00 0.00 0.00 50 1020.9
20210723044622 67 0 0.0 0.0 0.00 0.00 0.00 51 1021.0
20210723044101 67 0 0.0 0.0 0.00 0.00 0.00 51 1021.0
20210723043559 67 0 0.0 0.0 0.00 0.00 0.00 51 1020.9
20210723043138 68 0 0.0 0.0 0.00 0.00 0.00 51 1021.0
20210723042559 68 0 0.0 0.0 0.00 0.00 0.00 51 1021.0
20210723042042 68 0 0.0 0.0 0.00 0.00 0.00 51 1021.1
20210723041629 68 0 0.0 0.0 0.00 0.00 0.00 51 1021.1
20210723041042 68 0 0.0 0.0 0.00 0.00 0.00 51 1021.2
20210723040637 68 0 0.0 0.0 0.00 0.00 0.00 51 1021.2
20210723040053 68 0 0.0 0.0 0.00 0.00 0.00 51 1021.2
20210723035541 68 0 0.0 0.0 0.00 0.00 0.00 51 1021.3
20210723035110 68 0 0.0 0.0 0.00 0.00 0.00 51 1021.3
20210723034600 69 0 0.0 0.0 0.00 0.00 0.00 51 1021.3
20210723034043 69 0 0.0 0.0 0.00 0.00 0.00 51 1021.4
20210723033619 69 0 0.0 0.0 0.00 0.00 0.00 51 1021.4
20210723033109 69 0 0.0 0.0 0.00 0.00 0.00 51 1021.5
20210723032548 69 0 0.0 0.0 0.00 0.00 0.00 51 1021.6
20210723032054 69 0 0.0 0.0 0.00 0.00 0.00 51 1021.6
20210723031640 69 0 0.0 0.0 0.00 0.00 0.00 51 1021.5
20210723031053 69 0 0.0 0.0 0.00 0.00 0.00 51 1021.7
20210723030541 70 0 0.0 0.0 0.00 0.00 0.00 51 1021.8
20210723030134 70 0 0.0 0.0 0.00 0.00 0.00 51 1021.7
20210723025548 70 0 0.0 0.0 0.00 0.00 0.00 51 1021.7
20210723025043 70 0 0.0 0.0 0.00 0.00 0.00 51 1021.6
20210723024644 70 0 0.0 0.0 0.00 0.00 0.00 51 1021.6
20210723024043 70 0 0.0 0.0 0.00 0.00 0.00 51 1021.5
20210723023541 71 0 0.0 0.0 0.00 0.00 0.00 51 1021.4
20210723023138 71 0 0.0 0.0 0.00 0.00 0.00 51 1021.3
20210723022539 71 0 0.0 0.0 0.00 0.00 0.00 51 1021.3
20210723022100 71 0 0.0 0.0 0.00 0.00 0.00 51 1021.3
20210723021715 71 0 0.0 0.0 0.00 0.00 0.00 51 1021.2
20210723021042 71 0 0.0 0.0 0.00 0.00 0.00 51 1021.0
20210723020542 72 0 0.0 0.0 0.00 0.00 0.00 50 1021.0
20210723020054 72 0 0.0 0.0 0.00 0.00 0.00 50 1021.0
20210723015552 72 0 0.0 0.0 0.00 0.00 0.00 50 1021.0
20210723015103 72 0 0.0 0.0 0.00 0.00 0.00 50 1021.1
20210723014650 72 0 0.0 0.0 0.00 0.00 0.00 50 1021.1
20210723014053 73 0 0.0 0.0 0.00 0.00 0.00 50 1021.1
20210723013543 73 0 0.0 0.0 0.00 0.00 0.00 50 1021.0
20210723013139 73 0 0.0 0.0 0.00 0.00 0.00 50 1021.0
20210723012547 74 0 0.0 0.0 0.00 0.00 0.00 49 1020.9
20210723012053 74 0 0.0 0.0 0.00 0.00 0.00 49 1020.9
20210723011652 74 0 0.0 0.0 0.00 0.00 0.00 49 1020.8
20210723011042 74 0 0.0 0.0 0.00 0.00 0.00 49 1020.7
20210723010542 75 0 0.0 0.0 0.00 0.00 0.00 49 1020.6
20210723010138 75 0 0.0 0.0 0.00 0.00 0.00 48 1020.6
20210723005550 75 0 0.0 0.0 0.00 0.00 0.00 48 1020.7
20210723005043 76 0 0.0 0.0 0.00 0.00 0.00 48 1020.7
20210723004711 76 0 0.0 0.0 0.00 0.00 0.00 47 1020.6
20210723004044 76 0 0.0 0.0 0.00 0.00 0.00 47 1020.5
20210723003544 77 0 0.0 0.0 0.00 0.00 0.00 47 1020.5
20210723003202 77 0 0.0 0.0 0.00 0.00 0.00 46 1020.4
20210723002605 77 0 0.0 0.0 0.00 0.00 0.00 46 1020.5
20210723002042 77 0 0.0 0.0 0.00 0.00 0.00 46 1020.5
20210723001748 78 0 0.0 0.0 0.00 0.00 0.00 45 1020.5
20210723001044 78 0 0.0 0.0 0.00 0.00 0.00 45 1020.5
20210723000615 78 0 0.0 0.0 0.00 0.00 0.00 45 1020.5
20210723000116 79 0 0.0 0.0 0.00 0.00 0.00 44 1020.4
20210722235609 79 0 0.0 0.0 0.00 0.00 0.00 44 1020.3
20210722235108 80 0 0.0 0.0 0.00 0.00 0.00 43 1020.3
20210722234624 80 0 0.0 0.0 0.00 0.00 0.00 42 1020.2
20210722234042 80 0 0.0 0.0 0.00 0.00 0.00 42 1020.2
20210722233545 80 0 0.0 0.0 0.00 0.00 0.00 41 1020.2
20210722233118 80 0 0.0 0.0 0.00 0.00 0.00 41 1020.1
20210722232548 80 0 0.0 0.0 0.00 0.00 0.00 40 1020.2
20210722232049 80 0 0.0 0.0 0.00 0.00 0.00 40 1020.1
20210722231642 80 0 0.0 0.0 0.00 0.00 0.00 39 1020.0
20210722231045 81 0 0.0 0.0 0.00 0.00 0.00 39 1019.9
20210722230542 81 0 0.0 0.0 0.00 0.00 0.00 38 1020.0
20210722230120 81 0 0.0 0.0 0.00 0.00 0.00 38 1019.9
20210722225543 82 0 0.0 0.0 0.00 0.00 0.00 37 1020.0
20210722225043 82 0 0.0 0.0 0.00 0.00 0.00 37 1020.0
20210722224712 82 0 0.0 0.0 0.00 0.00 0.00 36 1020.0
20210722224042 83 0 0.0 0.0 0.00 0.00 0.00 36 1020.0
20210722223543 83 0 0.0 1.7 0.00 0.00 0.00 35 1020.0
20210722223112 83 0 0.0 1.7 0.00 0.00 0.00 34 1019.9
20210722222542 83 0 0.0 0.0 0.00 0.00 0.00 34 1020.0
20210722222141 83 0 0.0 1.7 0.00 0.00 0.00 34 1020.0
20210722221627 83 0 0.0 1.7 0.00 0.00 0.00 34 1020.0
20210722221043 83 111 0.0 3.5 0.00 0.00 0.00 33 1020.0
20210722220606 83 139 0.0 3.5 0.00 0.00 0.00 34 1020.0
20210722220058 84 0 0.0 3.5 0.00 0.00 0.00 34 1020.0
20210722215542 84 0 0.9 3.5 0.00 0.00 0.00 34 1020.0
20210722215042 84 129 0.0 3.5 0.00 0.00 0.00 34 1020.0
20210722214753 84 0 0.0 0.9 0.00 0.00 0.00 34 1020.0
20210722214109 84 0 0.0 2.6 0.00 0.00 0.00 34 1020.0
20210722213541 84 0 0.0 2.6 0.00 0.00 0.00 34 1019.9
20210722213128 84 0 0.0 1.7 0.00 0.00 0.00 34 1020.0
20210722212544 84 0 0.0 1.7 0.00 0.00 0.00 34 1020.0
20210722212056 84 0 0.0 2.6 0.00 0.00 0.00 34 1020.1
20210722211621 84 0 0.0 2.6 0.00 0.00 0.00 34 1020.1
20210722211042 84 0 0.0 0.9 0.00 0.00 0.00 34 1020.2
20210722210545 84 0 0.0 2.6 0.00 0.00 0.00 34 1020.1
20210722210105 84 0 0.0 2.6 0.00 0.00 0.00 34 1020.2
20210722205542 84 96 0.0 1.7 0.00 0.00 0.00 33 1020.3
20210722205054 84 0 0.0 0.0 0.00 0.00 0.00 33 1020.3
20210722204733 84 0 0.0 0.0 0.00 0.00 0.00 33 1020.3
20210722204105 85 0 0.0 1.7 0.00 0.00 0.00 33 1020.3
20210722203558 85 0 0.0 1.7 0.00 0.00 0.00 33 1020.3
20210722203126 85 138 0.0 0.0 0.00 0.00 0.00 33 1020.3
20210722202542 84 0 0.0 0.0 0.00 0.00 0.00 33 1020.3
20210722202042 84 0 0.0 0.9 0.00 0.00 0.00 33 1020.4
20210722201708 85 0 0.0 1.7 0.00 0.00 0.00 33 1020.4
20210722201046 85 124 0.0 1.7 0.00 0.00 0.00 33 1020.4
20210722200544 85 135 0.0 0.9 0.00 0.00 0.00 33 1020.4
20210722200237 85 0 0.0 2.6 0.00 0.00 0.00 32 1020.5
20210722195544 85 0 0.0 3.5 0.00 0.00 0.00 32 1020.4
20210722195044 85 0 0.0 3.5 0.00 0.00 0.00 32 1020.4
20210722194637 85 139 0.0 2.6 0.00 0.00 0.00 32 1020.4
20210722194043 86 0 0.0 2.6 0.00 0.00 0.00 32 1020.3
20210722193542 86 0 0.0 1.7 0.00 0.00 0.00 32 1020.3
20210722193149 86 0 0.9 5.2 0.00 0.00 0.00 31 1020.3
20210722192542 86 133 1.7 5.2 0.00 0.00 0.00 31 1020.3
20210722192044 86 0 0.0 1.7 0.00 0.00 0.00 31 1020.3
20210722191648 86 131 0.0 1.7 0.00 0.00 0.00 31 1020.3
20210722191044 86 0 0.0 1.7 0.00 0.00 0.00 31 1020.4
20210722190543 86 0 0.0 1.7 0.00 0.00 0.00 31 1020.4
20210722190106 86 0 0.0 1.7 0.00 0.00 0.00 31 1020.3
20210722185545 86 0 0.0 3.5 0.00 0.00 0.00 31 1020.3
20210722185047 86 0 0.9 3.5 0.00 0.00 0.00 31 1020.4
20210722184646 87 0 0.0 0.9 0.00 0.00 0.00 31 1020.5
20210722184112 87 124 0.0 3.5 0.00 0.00 0.00 31 1020.6
20210722183603 86 0 0.0 3.5 0.00 0.00 0.00 31 1020.7
20210722183137 86 136 0.0 3.5 0.00 0.00 0.00 31 1020.8
20210722182542 86 123 0.0 2.6 0.00 0.00 0.00 31 1020.9
20210722182101 86 120 0.0 0.9 0.00 0.00 0.00 30 1021.0
20210722181615 87 0 0.0 3.5 0.00 0.00 0.00 32 1021.0
20210722181100 86 0 0.9 3.5 0.00 0.00 0.00 30 1021.0
20210722180602 86 0 0.0 2.6 0.00 0.00 0.00 31 1021.0
20210722180101 86 0 0.9 2.6 0.00 0.00 0.00 31 1021.1
20210722175543 86 0 0.0 0.0 0.00 0.00 0.00 31 1021.1
20210722175048 86 0 0.0 1.7 0.00 0.00 0.00 32 1021.1
20210722174608 86 0 0.0 1.7 0.00 0.00 0.00 32 1021.2
20210722174042 86 0 0.0 0.0 0.00 0.00 0.00 32 1021.2
20210722173615 86 0 0.0 0.0 0.00 0.00 0.00 34 1021.3
20210722173126 85 0 0.0 0.0 0.00 0.00 0.00 33 1021.4
20210722172541 85 0 0.0 2.6 0.00 0.00 0.00 34 1021.4
20210722172057 85 0 0.0 2.6 0.00 0.00 0.00 33 1021.5
20210722171658 85 126 0.0 0.9 0.00 0.00 0.00 33 1021.6
20210722171042 84 0 0.0 3.5 0.00 0.00 0.00 34 1021.7
20210722170550 84 0 0.9 3.5 0.00 0.00 0.00 34 1021.7
20210722170136 84 0 0.0 4.3 0.00 0.00 0.00 35 1021.7
20210722165541 83 115 0.0 4.3 0.00 0.00 0.00 35 1021.8
20210722165043 83 107 0.9 3.5 0.00 0.00 0.00 35 1021.8
20210722164616 83 103 0.0 3.5 0.00 0.00 0.00 36 1021.8
20210722164042 83 0 0.0 0.0 0.00 0.00 0.00 37 1021.8
20210722163550 83 0 0.0 0.9 0.00 0.00 0.00 37 1021.8
20210722163206 83 0 0.0 2.6 0.00 0.00 0.00 38 1021.8
20210722162543 82 0 0.9 3.5 0.00 0.00 0.00 38 1021.8
20210722162047 82 0 0.0 3.5 0.00 0.00 0.00 38 1021.8
20210722161607 82 115 0.0 3.5 0.00 0.00 0.00 39 1021.8
20210722161042 82 0 0.0 1.7 0.00 0.00 0.00 39 1021.9
20210722160551 82 0 0.0 2.6 0.00 0.00 0.00 40 1021.9
20210722160132 82 0 0.0 2.6 0.00 0.00 0.00 40 1021.9
20210722155541 81 0 0.0 2.6 0.00 0.00 0.00 41 1022.0
20210722155044 81 0 0.0 2.6 0.00 0.00 0.00 41 1022.0